Location: São Paulo
(23.5507°S, 46.6334°W)
Time: 20:28:17
(UTC-03:00)

ISS - Visible Passes

Search period start: 17 January 2026 00:00
Search period end: 27 January 2026 00:00
Orbit: 413 x 424 km, 51.6° (Epoch: 17 January)

Date Brightness Start Highest point End Pass type
(mag) Time Alt. Az. Time Alt. Az. Time Alt. Az.
17 Jan -0.4 02:55:24 12° ESE 02:55:24 12° ESE 02:55:44 10° ESE visible
17 Jan -1.5 04:28:22 13° WSW 04:29:30 15° SW 04:31:35 10° S visible
18 Jan -1.8 03:42:37 23° SSW 03:42:37 23° SSW 03:44:36 10° SSE visible
19 Jan -0.4 02:56:47 13° SSE 02:56:47 13° SSE 02:57:09 10° SSE visible
